Time,TemperatureF,DewpointF,PressureIn,WindDirection,WindDirectionDegrees,WindSpeedMPH,WindSpeedGustMPH,Humidity,HourlyPrecipIn,Conditions,Clouds,dailyrainin,SoftwareType,DateUTC
2013-04-21 00:01:00,47.7,28.4,30.30,WSW,248,2.0,3.1,47,0.00,,,0.00,WUHU216HW,2013-04-21 07:01:00,
2013-04-21 00:06:00,47.7,28.4,30.30,SSW,203,2.2,4.0,47,0.00,,,0.00,WUHU216HW,2013-04-21 07:06:00,
2013-04-21 00:11:00,47.5,28.2,30.30,SSW,203,1.3,4.0,47,0.00,,,0.00,WUHU216HW,2013-04-21 07:11:00,
2013-04-21 00:16:00,47.5,28.2,30.30,SE,135,0.7,6.0,47,0.00,,,0.00,WUHU216HW,2013-04-21 07:16:00,
2013-04-21 00:21:00,47.5,28.2,30.30,SE,135,0.4,6.0,47,0.00,,,0.00,WUHU216HW,2013-04-21 07:21:00,
2013-04-21 00:26:00,47.3,28.5,30.30,WSW,248,0.9,4.5,48,0.00,,,0.00,WUHU216HW,2013-04-21 07:26:00,
2013-04-21 00:31:00,47.2,28.4,30.30,WSW,248,4.3,6.0,48,0.00,,,0.00,WUHU216HW,2013-04-21 07:31:00,
2013-04-21 00:36:00,47.0,28.7,30.30,SW,225,1.8,7.2,49,0.00,,,0.00,WUHU216HW,2013-04-21 07:36:00,
2013-04-21 00:41:00,47.0,28.7,30.30,SSW,203,0.0,7.2,49,0.00,,,0.00,WUHU216HW,2013-04-21 07:41:00,
2013-04-21 00:46:00,47.0,28.7,30.30,SSW,203,1.3,2.5,49,0.00,,,0.00,WUHU216HW,2013-04-21 07:46:00,
2013-04-21 00:51:00,46.8,28.6,30.30,SSW,203,2.2,2.7,49,0.00,,,0.00,WUHU216HW,2013-04-21 07:51:00,
2013-04-21 00:56:00,46.8,28.6,30.30,SSW,203,1.1,3.4,49,0.00,,,0.00,WUHU216HW,2013-04-21 07:56:00,
2013-04-21 01:01:00,46.8,28.1,30.29,South,180,0.0,3.4,48,0.00,,,0.00,WUHU216HW,2013-04-21 08:01:00,
2013-04-21 01:06:00,46.8,28.1,30.29,South,180,1.3,4.0,48,0.00,,,0.00,WUHU216HW,2013-04-21 08:06:00,
2013-04-21 01:11:00,46.8,27.6,30.29,SSW,203,1.1,4.0,47,0.00,,,0.00,WUHU216HW,2013-04-21 08:11:00,
2013-04-21 01:16:00,46.8,28.1,30.30,SW,225,0.0,4.7,48,0.00,,,0.00,WUHU216HW,2013-04-21 08:16:00,
2013-04-21 01:21:00,46.8,27.6,30.29,SSW,203,2.0,4.7,47,0.00,,,0.00,WUHU216HW,2013-04-21 08:21:00,
2013-04-21 01:26:00,46.8,27.6,30.29,SW,225,1.3,4.7,47,0.00,,,0.00,WUHU216HW,2013-04-21 08:26:00,
2013-04-21 01:31:00,46.8,27.6,30.29,SE,135,2.7,4.7,47,0.00,,,0.00,WUHU216HW,2013-04-21 08:31:00,
2013-04-21 01:36:00,46.8,27.6,30.29,SE,135,1.8,6.3,47,0.00,,,0.00,WUHU216HW,2013-04-21 08:36:00,
2013-04-21 01:41:00,46.8,27.6,30.29,SW,225,4.0,6.3,47,0.00,,,0.00,WUHU216HW,2013-04-21 08:41:00,
2013-04-21 01:46:00,46.8,27.6,30.29,SW,225,1.3,4.0,47,0.00,,,0.00,WUHU216HW,2013-04-21 08:46:00,
2013-04-21 01:51:00,46.6,27.4,30.29,SSE,158,1.1,4.0,47,0.00,,,0.00,WUHU216HW,2013-04-21 08:51:00,
2013-04-21 01:56:00,46.6,27.4,30.29,SE,135,3.8,4.0,47,0.00,,,0.00,WUHU216HW,2013-04-21 08:56:00,
2013-04-21 02:01:00,46.6,27.4,30.29,SSE,158,1.1,4.0,47,0.00,,,0.00,WUHU216HW,2013-04-21 09:01:00,
2013-04-21 02:06:00,46.6,27.4,30.29,South,180,0.4,3.8,47,0.00,,,0.00,WUHU216HW,2013-04-21 09:06:00,
2013-04-21 02:11:00,46.6,27.4,30.29,WSW,248,0.0,2.7,47,0.00,,,0.00,WUHU216HW,2013-04-21 09:11:00,
2013-04-21 02:16:00,46.4,27.2,30.29,SE,135,2.0,4.7,47,0.00,,,0.00,WUHU216HW,2013-04-21 09:16:00,
2013-04-21 02:21:00,46.4,27.2,30.29,SE,135,0.9,4.7,47,0.00,,,0.00,WUHU216HW,2013-04-21 09:21:00,
2013-04-21 02:26:00,46.4,27.2,30.29,SSE,158,1.6,3.8,47,0.00,,,0.00,WUHU216HW,2013-04-21 09:26:00,
2013-04-21 02:31:00,46.4,27.7,30.28,SSE,158,1.6,6.7,48,0.00,,,0.00,WUHU216HW,2013-04-21 09:31:00,
2013-04-21 02:36:00,46.3,27.5,30.28,SSW,203,0.4,6.9,48,0.00,,,0.00,WUHU216HW,2013-04-21 09:36:00,
2013-04-21 02:41:00,46.3,27.5,30.29,SSW,203,1.1,6.9,48,0.00,,,0.00,WUHU216HW,2013-04-21 09:41:00,
2013-04-21 02:46:00,46.3,27.0,30.29,SE,135,2.7,4.7,47,0.00,,,0.00,WUHU216HW,2013-04-21 09:46:00,
2013-04-21 02:51:00,46.1,27.4,30.28,SSE,158,1.8,4.0,48,0.00,,,0.00,WUHU216HW,2013-04-21 09:51:00,
2013-04-21 02:56:00,46.1,27.4,30.28,SSE,158,0.4,4.0,48,0.00,,,0.00,WUHU216HW,2013-04-21 09:56:00,
2013-04-21 03:01:00,46.1,27.4,30.28,SE,135,2.5,4.7,48,0.00,,,0.00,WUHU216HW,2013-04-21 10:01:00,
2013-04-21 03:06:00,45.9,27.3,30.29,WSW,248,0.4,4.7,48,0.00,,,0.00,WUHU216HW,2013-04-21 10:06:00,
2013-04-21 03:11:00,45.9,27.8,30.29,SSE,158,3.8,5.8,49,0.00,,,0.00,WUHU216HW,2013-04-21 10:11:00,
2013-04-21 03:16:00,45.7,27.6,30.28,SE,135,1.3,5.8,49,0.00,,,0.00,WUHU216HW,2013-04-21 10:16:00,
2013-04-21 03:21:00,45.7,27.6,30.28,SSW,203,0.4,4.7,49,0.00,,,0.00,WUHU216HW,2013-04-21 10:21:00,
2013-04-21 03:26:00,45.7,27.1,30.28,SSE,158,1.1,3.4,48,0.00,,,0.00,WUHU216HW,2013-04-21 10:26:00,
2013-04-21 03:31:00,45.7,27.1,30.28,SSE,158,1.1,2.0,48,0.00,,,0.00,WUHU216HW,2013-04-21 10:31:00,
2013-04-21 03:36:00,45.7,27.1,30.28,SSE,158,1.1,1.1,48,0.00,,,0.00,WUHU216HW,2013-04-21 10:36:00,
2013-04-21 03:38:00,45.7,27.1,30.28,SSE,158,1.1,1.1,48,0.00,,,0.00,WUHU216HW,2013-04-21 10:38:00,
2013-04-21 03:41:00,45.7,27.1,30.28,SSE,158,1.1,1.1,48,0.00,,,0.00,WUHU216HW,2013-04-21 10:41:00,
2013-04-21 03:46:00,45.7,27.1,30.28,SSE,158,1.1,1.1,48,0.00,,,0.00,WUHU216HW,2013-04-21 10:46:00,
2013-04-21 08:53:00,49.3,27.1,30.26,SSW,203,2.0,2.0,42,0.00,,,0.00,WUHU216HW,2013-04-21 15:53:00,
2013-04-21 08:58:00,50.9,33.0,30.26,ESE,113,0.4,4.9,50,0.00,,,0.00,WUHU216HW,2013-04-21 15:58:00,
2013-04-21 09:03:00,49.3,31.5,30.26,SSE,158,1.3,4.9,50,0.00,,,0.00,WUHU216HW,2013-04-21 16:03:00,
2013-04-21 09:08:00,48.4,30.6,30.26,SSW,203,0.4,3.4,50,0.00,,,0.00,WUHU216HW,2013-04-21 16:08:00,
2013-04-21 09:13:00,47.9,29.5,30.26,SSW,203,4.0,4.0,49,0.00,,,0.00,WUHU216HW,2013-04-21 16:13:00,
2013-04-21 09:18:00,47.9,29.5,30.26,SW,225,1.8,4.0,49,0.00,,,0.00,WUHU216HW,2013-04-21 16:18:00,
2013-04-21 09:23:00,47.7,28.9,30.26,SSE,158,0.2,4.0,48,0.00,,,0.00,WUHU216HW,2013-04-21 16:23:00,
2013-04-21 09:28:00,47.7,28.4,30.26,South,180,1.8,4.0,47,0.00,,,0.00,WUHU216HW,2013-04-21 16:28:00,
2013-04-21 09:33:00,47.5,28.7,30.26,WNW,293,0.0,2.5,48,0.00,,,0.00,WUHU216HW,2013-04-21 16:33:00,
2013-04-21 09:38:00,47.3,29.1,30.26,WSW,248,0.7,2.9,49,0.00,,,0.00,WUHU216HW,2013-04-21 16:38:00,
2013-04-21 09:43:00,47.3,28.5,30.26,SW,225,0.2,2.9,48,0.00,,,0.00,WUHU216HW,2013-04-21 16:43:00,
2013-04-21 09:48:00,47.3,28.5,30.25,SSW,203,0.4,1.1,48,0.00,,,0.00,WUHU216HW,2013-04-21 16:48:00,
2013-04-21 09:53:00,47.2,28.9,30.25,SSE,158,1.3,5.4,49,0.00,,,0.00,WUHU216HW,2013-04-21 16:53:00,
2013-04-21 09:58:00,46.8,28.1,30.26,South,180,0.7,5.4,48,0.00,,,0.00,WUHU216HW,2013-04-21 16:58:00,
2013-04-21 10:03:00,46.6,27.4,30.26,SW,225,1.1,4.5,47,0.00,,,0.00,WUHU216HW,2013-04-21 17:03:00,
2013-04-21 10:08:00,46.4,27.2,30.26,SW,225,1.3,4.5,47,0.00,,,0.00,WUHU216HW,2013-04-21 17:08:00,
2013-04-21 10:13:00,46.4,26.6,30.26,South,180,1.8,3.8,46,0.00,,,0.00,WUHU216HW,2013-04-21 17:13:00,
2013-04-21 10:18:00,46.4,27.2,30.26,SSW,203,1.1,4.0,47,0.00,,,0.00,WUHU216HW,2013-04-21 17:18:00,
2013-04-21 10:23:00,46.4,26.6,30.26,WSW,248,1.8,4.0,46,0.00,,,0.00,WUHU216HW,2013-04-21 17:23:00,
2013-04-21 10:28:00,46.4,26.6,30.26,SSW,203,0.4,3.4,46,0.00,,,0.00,WUHU216HW,2013-04-21 17:28:00,
2013-04-21 10:33:00,46.6,26.3,30.26,SSW,203,0.4,3.4,45,0.00,,,0.00,WUHU216HW,2013-04-21 17:33:00,
2013-04-21 10:38:00,47.0,27.1,30.26,ESE,113,1.6,1.8,46,0.00,,,0.00,WUHU216HW,2013-04-21 17:38:00,
2013-04-21 10:43:00,47.0,26.6,30.26,South,180,0.7,2.2,45,0.00,,,0.00,WUHU216HW,2013-04-21 17:43:00,
2013-04-21 10:48:00,47.0,27.1,30.26,WSW,248,1.3,2.2,46,0.00,,,0.00,WUHU216HW,2013-04-21 17:48:00,
2013-04-21 10:53:00,47.0,27.1,30.26,WSW,248,0.9,1.8,46,0.00,,,0.00,WUHU216HW,2013-04-21 17:53:00,
2013-04-21 10:58:00,47.2,26.7,30.26,WNW,293,0.0,2.7,45,0.00,,,0.00,WUHU216HW,2013-04-21 17:58:00,
2013-04-21 11:03:00,47.0,26.6,30.26,West,270,1.3,2.7,45,0.00,,,0.00,WUHU216HW,2013-04-21 18:03:00,
2013-04-21 11:08:00,47.0,26.6,30.26,NW,315,1.8,1.8,45,0.00,,,0.00,WUHU216HW,2013-04-21 18:08:00,
2013-04-21 11:13:00,47.0,26.6,30.26,ENE,68,0.9,1.8,45,0.00,,,0.00,WUHU216HW,2013-04-21 18:13:00,
2013-04-21 11:17:00,46.8,26.5,30.26,NE,45,0.0,0.0,45,0.00,,,0.00,WUHU216HW,2013-04-21 18:17:00,
2013-04-21 11:18:00,46.8,26.5,30.26,NE,45,0.0,1.8,45,0.00,,,0.00,WUHU216HW,2013-04-21 18:18:00,
2013-04-21 11:23:00,46.8,26.5,30.26,NE,45,0.0,1.6,45,0.00,,,0.00,WUHU216HW,2013-04-21 18:23:00,
2013-04-21 11:32:00,47.2,26.7,30.26,SE,135,0.2,0.2,45,0.00,,,0.00,WUHU216HW,2013-04-21 18:32:00,
2013-04-21 11:37:00,47.5,26.6,30.26,SSW,203,0.0,0.9,44,0.00,,,0.00,WUHU216HW,2013-04-21 18:37:00,
2013-04-21 11:42:00,47.9,27.4,30.26,SE,135,0.4,0.9,45,0.00,,,0.00,WUHU216HW,2013-04-21 18:42:00,
2013-04-21 11:47:00,47.9,27.4,30.26,SE,135,0.4,0.7,45,0.00,,,0.00,WUHU216HW,2013-04-21 18:47:00,
2013-04-21 11:55:00,48.1,27.0,30.26,NW,315,1.6,1.6,44,0.00,,,0.00,WUHU216HW,2013-04-21 18:55:00,
2013-04-21 12:00:00,48.2,27.2,30.26,WNW,293,1.1,1.6,44,0.00,,,0.00,WUHU216HW,2013-04-21 19:00:00,
2013-04-21 12:05:00,48.2,27.2,30.26,NW,315,0.4,1.6,44,0.00,,,0.00,WUHU216HW,2013-04-21 19:05:00,
2013-04-21 12:10:00,47.9,26.8,30.26,North,0,0.4,1.1,44,0.00,,,0.00,WUHU216HW,2013-04-21 19:10:00,
2013-04-21 12:15:00,48.1,27.0,30.26,North,0,0.4,1.6,44,0.00,,,0.00,WUHU216HW,2013-04-21 19:15:00,
2013-04-21 12:20:00,48.1,27.0,30.26,North,0,1.1,1.6,44,0.00,,,0.00,WUHU216HW,2013-04-21 19:20:00,
2013-04-21 12:25:00,48.1,27.0,30.26,North,0,1.1,1.1,44,0.00,,,0.00,WUHU216HW,2013-04-21 19:25:00,
2013-04-21 12:30:00,48.6,27.6,30.26,NNW,338,1.1,1.1,44,0.00,,,0.00,WUHU216HW,2013-04-21 19:30:00,
2013-04-21 12:35:00,49.3,27.6,30.26,West,270,0.9,1.1,43,0.00,,,0.00,WUHU216HW,2013-04-21 19:35:00,
2013-04-21 12:40:00,50.2,27.9,30.26,WSW,248,1.1,2.0,42,0.00,,,0.00,WUHU216HW,2013-04-21 19:40:00,
2013-04-21 12:45:00,51.5,28.5,30.26,SSE,158,2.5,2.5,41,0.00,,,0.00,WUHU216HW,2013-04-21 19:45:00,
2013-04-21 12:50:00,51.8,29.3,30.26,SE,135,0.4,2.5,42,0.00,,,0.00,WUHU216HW,2013-04-21 19:50:00,
2013-04-21 12:55:00,52.4,30.4,30.26,WSW,248,1.8,2.5,43,0.00,,,0.00,WUHU216HW,2013-04-21 19:55:00,
2013-04-21 13:00:00,51.8,31.6,30.26,WSW,248,2.5,3.8,46,0.00,,,0.00,WUHU216HW,2013-04-21 20:00:00,
2013-04-21 13:05:00,51.5,31.3,30.26,North,0,0.4,3.8,46,0.00,,,0.00,WUHU216HW,2013-04-21 20:05:00,
2013-04-21 13:10:00,51.1,31.5,30.26,NW,315,3.4,4.7,47,0.00,,,0.00,WUHU216HW,2013-04-21 20:10:00,
2013-04-21 13:15:00,50.6,30.5,30.26,NW,315,4.7,5.6,46,0.00,,,0.00,WUHU216HW,2013-04-21 20:15:00,
2013-04-21 13:20:00,50.0,29.4,30.27,WNW,293,4.0,7.6,45,0.00,,,0.00,WUHU216HW,2013-04-21 20:20:00,
2013-04-21 13:25:00,49.3,28.7,30.27,ENE,68,3.4,7.6,45,0.00,,,0.00,WUHU216HW,2013-04-21 20:25:00,
2013-04-21 13:30:00,47.9,27.9,30.27,NW,315,1.1,4.9,46,0.00,,,0.00,WUHU216HW,2013-04-21 20:30:00,
2013-04-21 13:35:00,47.7,27.8,30.27,East,90,2.5,3.4,46,0.00,,,0.00,WUHU216HW,2013-04-21 20:35:00,
2013-04-21 13:40:00,47.2,26.7,30.27,East,90,1.1,3.6,45,0.00,,,0.00,WUHU216HW,2013-04-21 20:40:00,
2013-04-21 13:45:00,46.8,26.5,30.28,NE,45,2.5,4.0,45,0.00,,,0.00,WUHU216HW,2013-04-21 20:45:00,
2013-04-21 13:50:00,46.8,26.5,30.27,NNE,23,0.7,4.0,45,0.00,,,0.00,WUHU216HW,2013-04-21 20:50:00,
2013-04-21 13:55:00,46.6,26.3,30.28,North,0,0.4,3.8,45,0.00,,,0.00,WUHU216HW,2013-04-21 20:55:00,
2013-04-21 14:00:00,46.6,26.3,30.28,North,0,0.4,1.8,45,0.00,,,0.00,WUHU216HW,2013-04-21 21:00:00,
2013-04-21 14:05:00,47.2,26.2,30.28,NW,315,0.4,1.1,44,0.00,,,0.00,WUHU216HW,2013-04-21 21:05:00,
2013-04-21 14:07:00,47.5,26.6,30.28,NNE,23,2.5,2.5,44,0.00,,,0.00,WUHU216HW,2013-04-21 21:07:00,
2013-04-21 14:10:00,47.5,26.6,30.28,NNE,23,2.5,2.5,44,0.00,,,0.00,WUHU216HW,2013-04-21 21:10:00,
2013-04-21 14:15:00,47.5,26.6,30.28,NNE,23,2.5,2.5,44,0.00,,,0.00,WUHU216HW,2013-04-21 21:15:00,
2013-04-21 14:23:00,47.9,26.8,30.28,North,0,0.4,0.4,44,0.00,,,0.00,WUHU216HW,2013-04-21 21:23:00,
2013-04-21 14:28:00,48.1,27.0,30.28,NE,45,1.8,2.0,44,0.00,,,0.00,WUHU216HW,2013-04-21 21:28:00,
2013-04-21 14:29:00,48.2,27.2,30.28,ENE,68,0.2,0.2,44,0.00,,,0.00,WUHU216HW,2013-04-21 21:29:00,
2013-04-21 14:32:00,48.2,27.2,30.28,ENE,68,0.2,2.0,44,0.00,,,0.00,WUHU216HW,2013-04-21 21:32:00,
2013-04-21 14:37:00,48.2,27.2,30.28,ENE,68,0.2,0.2,44,0.00,,,0.00,WUHU216HW,2013-04-21 21:37:00,
2013-04-21 14:43:00,48.1,27.0,30.28,North,0,0.2,0.2,44,0.00,,,0.00,WUHU216HW,2013-04-21 21:43:00,
2013-04-21 14:48:00,48.1,27.0,30.28,NE,45,0.9,1.6,44,0.00,,,0.00,WUHU216HW,2013-04-21 21:48:00,
2013-04-21 14:53:00,48.1,27.0,30.28,NE,45,0.9,1.6,44,0.00,,,0.00,WUHU216HW,2013-04-21 21:53:00,
2013-04-21 14:58:00,48.1,27.0,30.28,WNW,293,0.4,0.4,44,0.00,,,0.00,WUHU216HW,2013-04-21 21:58:00,
2013-04-21 15:03:00,48.6,27.0,30.29,NW,315,0.4,1.6,43,0.00,,,0.00,WUHU216HW,2013-04-21 22:03:00,
2013-04-21 15:08:00,49.0,27.3,30.28,WSW,248,0.7,2.5,43,0.00,,,0.00,WUHU216HW,2013-04-21 22:08:00,
2013-04-21 15:11:00,49.1,27.5,30.29,WNW,293,0.0,0.0,43,0.00,,,0.00,WUHU216HW,2013-04-21 22:11:00,
2013-04-21 15:13:00,49.1,27.5,30.29,WNW,293,0.0,2.5,43,0.00,,,0.00,WUHU216HW,2013-04-21 22:13:00,
2013-04-21 15:18:00,49.1,27.5,30.29,WNW,293,0.0,2.5,43,0.00,,,0.00,WUHU216HW,2013-04-21 22:18:00,
2013-04-21 15:23:00,49.3,28.2,30.28,WNW,293,0.4,0.4,44,0.00,,,0.00,WUHU216HW,2013-04-21 22:23:00,
2013-04-21 15:28:00,49.7,28.5,30.28,NNE,23,1.1,1.1,44,0.00,,,0.00,WUHU216HW,2013-04-21 22:28:00,
2013-04-21 15:33:00,50.0,28.4,30.28,NW,315,1.1,1.6,43,0.00,,,0.00,WUHU216HW,2013-04-21 22:33:00,
2013-04-21 15:38:00,50.4,28.6,30.28,North,0,0.4,1.8,43,0.00,,,0.00,WUHU216HW,2013-04-21 22:38:00,
2013-04-21 15:43:00,50.4,28.6,30.28,NE,45,0.4,1.8,43,0.00,,,0.00,WUHU216HW,2013-04-21 22:43:00,
2013-04-21 15:48:00,50.4,29.2,30.28,NNE,23,0.2,1.8,44,0.00,,,0.00,WUHU216HW,2013-04-21 22:48:00,
2013-04-21 15:53:00,50.0,30.0,30.28,ENE,68,0.9,1.8,46,0.00,,,0.00,WUHU216HW,2013-04-21 22:53:00,
2013-04-21 15:58:00,50.0,29.4,30.28,NE,45,0.2,1.3,45,0.00,,,0.00,WUHU216HW,2013-04-21 22:58:00,
2013-04-21 16:03:00,50.2,30.2,30.28,West,270,1.6,1.6,46,0.00,,,0.00,WUHU216HW,2013-04-21 23:03:00,
2013-04-21 16:08:00,50.9,29.7,30.28,WSW,248,0.0,1.6,44,0.00,,,0.00,WUHU216HW,2013-04-21 23:08:00,
2013-04-21 16:09:00,51.1,29.9,30.28,SE,135,1.6,1.6,44,0.00,,,0.00,WUHU216HW,2013-04-21 23:09:00,
2013-04-21 16:13:00,51.1,29.9,30.28,SE,135,1.6,1.6,44,0.00,,,0.00,WUHU216HW,2013-04-21 23:13:00,
2013-04-21 16:18:00,51.1,29.9,30.28,SE,135,1.6,1.6,44,0.00,,,0.00,WUHU216HW,2013-04-21 23:18:00,
2013-04-21 16:23:00,50.9,30.2,30.27,SW,225,0.0,0.0,45,0.00,,,0.00,WUHU216HW,2013-04-21 23:23:00,
2013-04-21 16:28:00,50.6,30.5,30.28,SSE,158,2.0,2.0,46,0.00,,,0.00,WUHU216HW,2013-04-21 23:28:00,
2013-04-21 16:33:00,50.2,30.7,30.28,ESE,113,0.9,2.0,47,0.00,,,0.00,WUHU216HW,2013-04-21 23:33:00,
2013-04-21 16:38:00,50.0,30.0,30.28,ENE,68,1.6,2.0,46,0.00,,,0.00,WUHU216HW,2013-04-21 23:38:00,
2013-04-21 16:43:00,50.0,30.0,30.28,NE,45,0.2,1.8,46,0.00,,,0.00,WUHU216HW,2013-04-21 23:43:00,
2013-04-21 16:48:00,50.0,29.4,30.28,East,90,0.9,1.8,45,0.00,,,0.00,WUHU216HW,2013-04-21 23:48:00,
2013-04-21 16:53:00,50.2,29.6,30.28,NE,45,0.7,1.8,45,0.00,,,0.00,WUHU216HW,2013-04-21 23:53:00,
2013-04-21 16:58:00,50.2,29.6,30.28,NNE,23,1.3,3.4,45,0.00,,,0.00,WUHU216HW,2013-04-21 23:58:00,
2013-04-21 17:03:00,50.0,30.0,30.28,NNE,23,0.0,3.4,46,0.00,,,0.00,WUHU216HW,2013-04-22 00:03:00,
2013-04-21 17:08:00,50.2,29.6,30.28,NNE,23,1.1,1.6,45,0.00,,,0.00,WUHU216HW,2013-04-22 00:08:00,
2013-04-21 17:13:00,50.2,29.6,30.28,NE,45,0.4,1.1,45,0.00,,,0.00,WUHU216HW,2013-04-22 00:13:00,
2013-04-21 17:18:00,50.4,29.8,30.28,ESE,113,0.2,1.1,45,0.00,,,0.00,WUHU216HW,2013-04-22 00:18:00,
2013-04-21 17:23:00,50.4,29.8,30.29,ESE,113,0.0,0.4,45,0.00,,,0.00,WUHU216HW,2013-04-22 00:23:00,
2013-04-21 17:28:00,50.6,29.9,30.29,NW,315,1.3,1.3,45,0.00,,,0.00,WUHU216HW,2013-04-22 00:28:00,
2013-04-21 17:33:00,50.6,29.9,30.29,West,270,1.1,1.3,45,0.00,,,0.00,WUHU216HW,2013-04-22 00:33:00,
2013-04-21 17:38:00,50.6,29.9,30.29,West,270,1.1,1.1,45,0.00,,,0.00,WUHU216HW,2013-04-22 00:38:00,
2013-04-21 17:43:00,50.8,30.6,30.28,East,90,0.4,1.6,46,0.00,,,0.00,WUHU216HW,2013-04-22 00:43:00,
2013-04-21 17:48:00,50.6,31.1,30.29,ENE,68,0.4,1.6,47,0.00,,,0.00,WUHU216HW,2013-04-22 00:48:00,
2013-04-21 17:53:00,50.4,30.3,30.29,WSW,248,1.1,1.1,46,0.00,,,0.00,WUHU216HW,2013-04-22 00:53:00,
2013-04-21 17:58:00,50.4,30.3,30.29,WSW,248,0.0,1.1,46,0.00,,,0.00,WUHU216HW,2013-04-22 00:58:00,
2013-04-21 18:03:00,50.4,30.3,30.29,WSW,248,0.0,0.0,46,0.00,,,0.00,WUHU216HW,2013-04-22 01:03:00,
2013-04-21 18:08:00,50.2,30.2,30.29,WSW,248,0.0,0.0,46,0.00,,,0.00,WUHU216HW,2013-04-22 01:08:00,
2013-04-21 18:13:00,49.9,29.8,30.29,WSW,248,0.0,0.2,46,0.00,,,0.00,WUHU216HW,2013-04-22 01:13:00,
2013-04-21 18:18:00,49.7,29.1,30.29,WSW,248,0.2,0.2,45,0.00,,,0.00,WUHU216HW,2013-04-22 01:18:00,
2013-04-21 18:23:00,49.7,29.1,30.29,WSW,248,0.4,0.4,45,0.00,,,0.00,WUHU216HW,2013-04-22 01:23:00,
2013-04-21 18:28:00,49.7,29.1,30.29,WSW,248,0.0,0.4,45,0.00,,,0.00,WUHU216HW,2013-04-22 01:28:00,
2013-04-21 18:33:00,49.5,28.9,30.29,WSW,248,0.0,0.0,45,0.00,,,0.00,WUHU216HW,2013-04-22 01:33:00,
2013-04-21 18:38:00,49.3,28.7,30.29,WSW,248,0.0,0.0,45,0.00,,,0.00,WUHU216HW,2013-04-22 01:38:00,
2013-04-21 18:43:00,49.3,28.7,30.29,WSW,248,0.0,0.0,45,0.00,,,0.00,WUHU216HW,2013-04-22 01:43:00,
2013-04-21 18:48:00,49.3,28.2,30.29,WSW,248,0.0,0.0,44,0.00,,,0.00,WUHU216HW,2013-04-22 01:48:00,
2013-04-21 18:53:00,49.1,28.0,30.29,WSW,248,0.0,0.0,44,0.00,,,0.00,WUHU216HW,2013-04-22 01:53:00,
2013-04-21 18:58:00,49.1,28.0,30.29,WSW,248,0.0,0.0,44,0.00,,,0.00,WUHU216HW,2013-04-22 01:58:00,
2013-04-21 19:03:00,49.1,27.5,30.29,WSW,248,0.0,0.0,43,0.00,,,0.00,WUHU216HW,2013-04-22 02:03:00,
2013-04-21 19:08:00,49.3,27.6,30.29,WSW,248,1.1,1.1,43,0.00,,,0.00,WUHU216HW,2013-04-22 02:08:00,
2013-04-21 19:13:00,49.7,28.0,30.29,WSW,248,0.4,2.5,43,0.00,,,0.00,WUHU216HW,2013-04-22 02:13:00,
2013-04-21 19:18:00,49.9,28.7,30.30,WNW,293,2.2,5.1,44,0.00,,,0.00,WUHU216HW,2013-04-22 02:18:00,
2013-04-21 19:23:00,49.7,29.1,30.30,West,270,0.9,5.1,45,0.00,,,0.00,WUHU216HW,2013-04-22 02:23:00,
2013-04-21 19:28:00,49.7,29.6,30.30,WNW,293,1.1,6.5,46,0.00,,,0.00,WUHU216HW,2013-04-22 02:28:00,
2013-04-21 19:33:00,49.3,29.9,30.30,NW,315,3.6,6.5,47,0.00,,,0.00,WUHU216HW,2013-04-22 02:33:00,
2013-04-21 19:38:00,49.1,30.3,30.31,NW,315,4.3,5.1,48,0.00,,,0.00,WUHU216HW,2013-04-22 02:38:00,
2013-04-21 19:43:00,49.0,30.1,30.31,NW,315,0.4,5.1,48,0.00,,,0.00,WUHU216HW,2013-04-22 02:43:00,
2013-04-21 19:48:00,48.6,29.7,30.31,WNW,293,1.1,4.7,48,0.00,,,0.00,WUHU216HW,2013-04-22 02:48:00,
2013-04-21 19:53:00,48.6,29.7,30.31,NW,315,3.1,4.7,48,0.00,,,0.00,WUHU216HW,2013-04-22 02:53:00,
2013-04-21 19:58:00,48.4,29.5,30.31,West,270,1.3,4.3,48,0.00,,,0.00,WUHU216HW,2013-04-22 02:58:00,
2013-04-21 20:03:00,48.2,29.9,30.31,West,270,2.5,2.5,49,0.00,,,0.00,WUHU216HW,2013-04-22 03:03:00,
2013-04-21 20:08:00,47.9,29.5,30.31,NW,315,1.8,4.7,49,0.00,,,0.00,WUHU216HW,2013-04-22 03:08:00,
2013-04-21 20:13:00,47.7,30.0,30.31,NNW,338,4.7,4.7,50,0.00,,,0.00,WUHU216HW,2013-04-22 03:13:00,
2013-04-21 20:18:00,47.5,29.8,30.32,WNW,293,4.3,6.3,50,0.00,,,0.00,WUHU216HW,2013-04-22 03:18:00,
2013-04-21 20:23:00,47.3,29.6,30.32,North,0,1.1,6.3,50,0.00,,,0.00,WUHU216HW,2013-04-22 03:23:00,
2013-04-21 20:28:00,47.2,29.4,30.32,WNW,293,0.7,4.3,50,0.00,,,0.00,WUHU216HW,2013-04-22 03:28:00,
2013-04-21 20:33:00,47.2,28.9,30.32,NW,315,0.7,2.7,49,0.00,,,0.00,WUHU216HW,2013-04-22 03:33:00,
2013-04-21 20:38:00,47.0,28.7,30.33,NNW,338,0.0,1.1,49,0.00,,,0.00,WUHU216HW,2013-04-22 03:38:00,
2013-04-21 20:43:00,46.8,28.6,30.33,West,270,0.7,1.1,49,0.00,,,0.00,WUHU216HW,2013-04-22 03:43:00,
2013-04-21 20:48:00,46.6,28.5,30.33,NW,315,0.4,1.1,49,0.00,,,0.00,WUHU216HW,2013-04-22 03:48:00,
2013-04-21 20:53:00,46.4,28.3,30.34,West,270,0.7,1.8,49,0.00,,,0.00,WUHU216HW,2013-04-22 03:53:00,
2013-04-21 20:58:00,46.3,27.5,30.34,North,0,1.8,2.5,48,0.00,,,0.00,WUHU216HW,2013-04-22 03:58:00,
2013-04-21 21:01:00,46.1,27.4,30.34,NW,315,1.1,2.5,48,0.00,,,0.00,WUHU216HW,2013-04-22 04:01:00,
2013-04-21 21:06:00,45.9,27.8,30.34,NW,315,0.7,4.9,49,0.00,,,0.00,WUHU216HW,2013-04-22 04:06:00,
2013-04-21 21:11:00,45.7,27.6,30.34,North,0,2.5,4.9,49,0.00,,,0.00,WUHU216HW,2013-04-22 04:11:00,
2013-04-21 21:16:00,45.5,27.5,30.34,WNW,293,0.0,2.5,49,0.00,,,0.00,WUHU216HW,2013-04-22 04:16:00,
2013-04-21 21:21:00,45.4,27.3,30.35,North,0,1.1,2.5,49,0.00,,,0.00,WUHU216HW,2013-04-22 04:21:00,
2013-04-21 21:26:00,45.2,27.1,30.35,NNW,338,0.0,1.8,49,0.00,,,0.00,WUHU216HW,2013-04-22 04:26:00,
2013-04-21 21:31:00,45.0,27.0,30.35,West,270,0.0,1.8,49,0.00,,,0.00,WUHU216HW,2013-04-22 04:31:00,
2013-04-21 21:36:00,44.8,26.3,30.36,West,270,0.0,1.1,48,0.00,,,0.00,WUHU216HW,2013-04-22 04:36:00,
2013-04-21 21:41:00,44.5,25.9,30.36,West,270,0.0,0.0,48,0.00,,,0.00,WUHU216HW,2013-04-22 04:41:00,
2013-04-21 21:46:00,43.9,25.5,30.36,West,270,0.0,0.0,48,0.00,,,0.00,WUHU216HW,2013-04-22 04:46:00,
2013-04-21 21:51:00,43.7,25.3,30.36,West,270,0.4,0.4,48,0.00,,,0.00,WUHU216HW,2013-04-22 04:51:00,
2013-04-21 21:56:00,43.6,25.1,30.36,West,270,0.0,0.4,48,0.00,,,0.00,WUHU216HW,2013-04-22 04:56:00,
2013-04-21 22:01:00,43.4,24.9,30.36,West,270,0.0,0.2,48,0.00,,,0.00,WUHU216HW,2013-04-22 05:01:00,
2013-04-21 22:06:00,43.2,24.9,30.36,West,270,0.2,0.2,48,0.00,,,0.00,WUHU216HW,2013-04-22 05:06:00,
2013-04-21 22:11:00,42.8,24.5,30.37,West,270,0.0,0.4,48,0.00,,,0.00,WUHU216HW,2013-04-22 05:11:00,
2013-04-21 22:16:00,42.8,24.5,30.37,West,270,0.4,0.4,48,0.00,,,0.00,WUHU216HW,2013-04-22 05:16:00,
2013-04-21 22:21:00,42.7,24.3,30.36,West,270,0.0,0.4,48,0.00,,,0.00,WUHU216HW,2013-04-22 05:21:00,
2013-04-21 22:26:00,42.5,24.1,30.36,West,270,0.0,0.4,48,0.00,,,0.00,WUHU216HW,2013-04-22 05:26:00,
2013-04-21 22:31:00,42.3,23.9,30.37,WNW,293,0.4,0.7,48,0.00,,,0.00,WUHU216HW,2013-04-22 05:31:00,
2013-04-21 22:36:00,42.1,23.8,30.37,WNW,293,0.0,0.7,48,0.00,,,0.00,WUHU216HW,2013-04-22 05:36:00,
2013-04-21 22:41:00,42.1,23.8,30.37,NW,315,0.9,1.1,48,0.00,,,0.00,WUHU216HW,2013-04-22 05:41:00,
2013-04-21 22:46:00,41.9,23.6,30.37,NW,315,0.9,1.1,48,0.00,,,0.00,WUHU216HW,2013-04-22 05:46:00,
2013-04-21 22:51:00,41.8,23.4,30.37,NW,315,0.7,1.1,48,0.00,,,0.00,WUHU216HW,2013-04-22 05:51:00,
2013-04-21 22:56:00,41.6,22.7,30.37,NNW,338,0.4,1.8,47,0.00,,,0.00,WUHU216HW,2013-04-22 05:56:00,
2013-04-21 23:01:00,41.4,23.0,30.37,NW,315,0.4,2.2,48,0.00,,,0.00,WUHU216HW,2013-04-22 06:01:00,
2013-04-21 23:06:00,41.4,23.0,30.37,NNW,338,0.4,2.2,48,0.00,,,0.00,WUHU216HW,2013-04-22 06:06:00,
2013-04-21 23:11:00,41.2,22.9,30.37,NNW,338,0.0,1.1,48,0.00,,,0.00,WUHU216HW,2013-04-22 06:11:00,
2013-04-21 23:16:00,41.0,22.7,30.37,NNW,338,0.4,1.8,48,0.00,,,0.00,WUHU216HW,2013-04-22 06:16:00,
2013-04-21 23:21:00,41.0,22.2,30.38,NNW,338,0.4,1.8,47,0.00,,,0.00,WUHU216HW,2013-04-22 06:21:00,
2013-04-21 23:26:00,40.9,22.6,30.38,NNW,338,0.9,1.6,48,0.00,,,0.00,WUHU216HW,2013-04-22 06:26:00,
2013-04-21 23:31:00,40.7,21.9,30.38,NNW,338,0.4,1.3,47,0.00,,,0.00,WUHU216HW,2013-04-22 06:31:00,
2013-04-21 23:36:00,40.7,21.9,30.38,NNW,338,0.0,1.3,47,0.00,,,0.00,WUHU216HW,2013-04-22 06:36:00,
2013-04-21 23:41:00,40.7,21.9,30.38,NNW,338,0.4,0.7,47,0.00,,,0.00,WUHU216HW,2013-04-22 06:41:00,
2013-04-21 23:46:00,40.5,21.7,30.38,NNW,338,0.4,0.7,47,0.00,,,0.00,WUHU216HW,2013-04-22 06:46:00,
2013-04-21 23:51:00,40.5,21.7,30.39,NNW,338,0.4,1.1,47,0.00,,,0.00,WUHU216HW,2013-04-22 06:51:00,
2013-04-21 23:56:00,40.3,21.5,30.39,NNW,338,0.2,1.1,47,0.00,,,0.00,WUHU216HW,2013-04-22 06:56:00,